QPF
0.03 0.02 0.01 0.01 0.00 0.00 0.01 0.02 0.03 0.03 0.04 0.04 0.03 0.02 0.02 0.02 0.01 0.01 0.02 0.01 0.01 0.01 0.00 0.00 0.01 0.01 0.00 0.00 0.00 0.00 0.00 0.00 0.00 0.01 0.03 0.03 0.05 0.06
0.03 0.02 0.01 0.01 0.00 0.00 0.01 0.01 0.01 0.01 0.02 0.02 0.01 0.01 0.01 0.01 0.01 0.01 0.02 0.01 0.00 0.00 0.00 0.00 0.00 0.00 0.00 0.00 0.00 0.00 0.00 0.00 0.00 0.00 0.00 0.01 0.02 0.02
0.01 0.01 0.01 0.01 0.01 0.01 0.00 0.00 0.00 0.00 0.01 0.01 0.00 0.01 0.00 0.00 0.00 0.01 0.02 0.01 0.00 0.00 0.00 0.00 0.00 0.00 0.00 0.00 0.00 0.00 0.00 0.00 0.00 0.00 0.00 0.01 0.01 0.02
0.01 0.01 0.01 0.01 0.01 0.01 0.01 0.00 0.00 0.00 0.00 0.01 0.00 0.01 0.01 0.01 0.00 0.00 0.01 0.01 0.01 0.00 0.00 0.00 0.00 0.00 0.00 0.00 0.00 0.00 0.00 0.00 0.00 0.00 0.00 0.01 0.01 0.01
0.01 0.01 0.01 0.00 0.00 0.01 0.01 0.00 0.00 0.01 0.01 0.01 0.01 0.01 0.00 0.01 0.01 0.01 0.01 0.01 0.01 0.00 0.00 0.00 0.00 0.00 0.00 0.00 0.00 0.00 0.00 0.00 0.00 0.00 0.00 0.00 0.01 0.01
0.00 0.00 0.00 0.00 0.00 0.01 0.01 0.01 0.01 0.01 0.01 0.00 0.00 0.00 0.00 0.00 0.01 0.01 0.01 0.01 0.01 0.00 0.00 0.00 0.00 0.00 0.00 0.00 0.00 0.00 0.00 0.00 0.00 0.00 0.00 0.00 0.00 0.00
0.00 0.00 0.00 0.00 0.00 0.00 0.00 0.01 0.01 0.01 0.01 0.01 0.01 0.00 0.01 0.01 0.01 0.01 0.01 0.01 0.01 0.01 0.01 0.00 0.00 0.00 0.00 0.00 0.00 0.00 0.00 0.00 0.00 0.00 0.00 0.00 0.00 0.00
0.01 0.01 0.00 0.00 0.00 0.01 0.01 0.01 0.01 0.01 0.01 0.01 0.01 0.01 0.01 0.01 0.01 0.01 0.01 0.01 0.01 0.00 0.01 0.01 0.00 0.00 0.00 0.00 0.00 0.00 0.00 0.00 0.00 0.00 0.00 0.00 0.00 0.00
0.00 0.00 0.00 0.00 0.00 0.00 0.00 0.00 0.00 0.00 0.00 0.01 0.01 0.01 0.01 0.01 0.02 0.01 0.01 0.01 0.01 0.00 0.01 0.00 0.00 0.00 0.00 0.00 0.00 0.00 0.00 0.00 0.00 0.00 0.00 0.00 0.00 0.00
0.00 0.00 0.00 0.00 0.00 0.00 0.00 0.00 0.00 0.00 0.01 0.01 0.01 0.01 0.01 0.01 0.02 0.01 0.01 0.01 0.00 0.00 0.01 0.01 0.00 0.00 0.00 0.00 0.00 0.00 0.00 0.00 0.00 0.00 0.00 0.00 0.00 0.00
0.00 0.00 0.00 0.01 0.00 0.00 0.00 0.01 0.01 0.01 0.01 0.01 0.01 0.00 0.00 0.00 0.00 0.00 0.00 0.00 0.00 0.00 0.01 0.01 0.01 0.00 0.00 0.00 0.00 0.00 0.00 0.00 0.00 0.00 0.00 0.00 0.00 0.00
0.01 0.01 0.00 0.00 0.00 0.00 0.01 0.02 0.03 0.02 0.03 0.02 0.01 0.01 0.00 0.00 0.00 0.00 0.00 0.00 0.00 0.00 0.00 0.01 0.01 0.01 0.01 0.00 0.00 0.00 0.00 0.00 0.00 0.00 0.00 0.00 0.00 0.00
0.01 0.01 0.02 0.01 0.01 0.02 0.02 0.02 0.03 0.02 0.02 0.02 0.02 0.02 0.02 0.03 0.03 0.02 0.02 0.02 0.02 0.01 0.00 0.01 0.01 0.01 0.02 0.01 0.00 0.00 0.00 0.00 0.00 0.01 0.01 0.00 0.00 0.00
0.02 0.02 0.02 0.02 0.02 0.02 0.01 0.01 0.01 0.00 0.01 0.01 0.01 0.01 0.02 0.02 0.02 0.03 0.04 0.05 0.04 0.02 0.01 0.03 0.03 0.03 0.03 0.02 0.00 0.00 0.00 0.01 0.01 0.01 0.01 0.02 0.02 0.01
0.01 0.02 0.02 0.01 0.01 0.01 0.01 0.00 0.00 0.00 0.00 0.00 0.01 0.01 0.01 0.01 0.02 0.02 0.04 0.05 0.05 0.04 0.03 0.06 0.08 0.07 0.07 0.05 0.03 0.02 0.01 0.01 0.01 0.02 0.03 0.04 0.04 0.04
0.01 0.01 0.01 0.01 0.01 0.00 0.00 0.01 0.01 0.01 0.01 0.02 0.02 0.02 0.02 0.02 0.02 0.02 0.02 0.03 0.05 0.03 0.03 0.06 0.10 0.11 0.10 0.08 0.07 0.04 0.03 0.02 0.01 0.02 0.04 0.04 0.03 0.03
0.02 0.02 0.03 0.03 0.03 0.03 0.04 0.04 0.05 0.05 0.04 0.03 0.03 0.03 0.03 0.02 0.02 0.01 0.02 0.03 0.04 0.04 0.03 0.04 0.06 0.09 0.10 0.09 0.07 0.05 0.04 0.03 0.02 0.03 0.06 0.05 0.03 0.02
0.01 0.02 0.03 0.03 0.04 0.04 0.05 0.05 0.05 0.05 0.05 0.05 0.05 0.05 0.04 0.04 0.03 0.03 0.04 0.05 0.06 0.05 0.05 0.04 0.05 0.07 0.07 0.06 0.05 0.06 0.05 0.05 0.04 0.06 0.07 0.07 0.04 0.02
0.02 0.03 0.04 0.04 0.04 0.04 0.04 0.04 0.04 0.05 0.05 0.04 0.04 0.05 0.05 0.05 0.05 0.04 0.05 0.06 0.05 0.05 0.05 0.05 0.06 0.08 0.08 0.05 0.03 0.04 0.07 0.07 0.06 0.06 0.06 0.07 0.05 0.03
0.02 0.03 0.05 0.06 0.05 0.04 0.03 0.03 0.03 0.03 0.03 0.04 0.05 0.05 0.04 0.05 0.05 0.06 0.06 0.06 0.05 0.05 0.04 0.05 0.06 0.07 0.08 0.06 0.05 0.03 0.03 0.04 0.05 0.05 0.04 0.05 0.04 0.03
0.04 0.05 0.05 0.05 0.04 0.04 0.04 0.04 0.03 0.03 0.03 0.04 0.05 0.06 0.06 0.07 0.07 0.07 0.07 0.07 0.06 0.05 0.05 0.05 0.04 0.04 0.04 0.05 0.04 0.02 0.02 0.03 0.03 0.04 0.04 0.04 0.03 0.03
0.03 0.02 0.02 0.03 0.03 0.04 0.04 0.04 0.04 0.03 0.04 0.04 0.05 0.06 0.07 0.07 0.07 0.07 0.06 0.06 0.06 0.05 0.05 0.04 0.03 0.03 0.04 0.04 0.04 0.03 0.02 0.02 0.03 0.03 0.02 0.02 0.03 0.02
0.01 0.02 0.02 0.03 0.04 0.04 0.05 0.05 0.04 0.05 0.05 0.05 0.06 0.07 0.07 0.07 0.07 0.06 0.06 0.06 0.04 0.04 0.04 0.03 0.03 0.03 0.03 0.04 0.04 0.04 0.03 0.03 0.03 0.04 0.03 0.02 0.02 0.01
MSLP
1017.61 1017.64 1017.71 1017.83 1017.96 1018.07 1018.15 1018.18 1018.15 1018.07 1017.96 1017.83 1017.70 1017.59 1017.51 1017.46 1017.45 1017.48 1017.55 1017.64 1017.75 1017.88 1018.01 1018.14 1018.26 1018.35 1018.40 1018.43 1018.43 1018.41 1018.39 1018.37 1018.37 1018.38 1018.42 1018.47 1018.52 1018.56
1017.58 1017.61 1017.69 1017.80 1017.93 1018.05 1018.15 1018.20 1018.20 1018.16 1018.07 1017.94 1017.81 1017.67 1017.54 1017.43 1017.34 1017.28 1017.25 1017.26 1017.30 1017.37 1017.47 1017.57 1017.68 1017.77 1017.85 1017.90 1017.93 1017.95 1017.95 1017.95 1017.95 1017.97 1018.00 1018.03 1018.06 1018.08
1017.52 1017.57 1017.66 1017.78 1017.92 1018.05 1018.17 1018.25 1018.28 1018.26 1018.20 1018.09 1017.95 1017.79 1017.62 1017.45 1017.28 1017.14 1017.02 1016.93 1016.89 1016.88 1016.91 1016.97 1017.05 1017.13 1017.21 1017.28 1017.33 1017.36 1017.38 1017.40 1017.42 1017.44 1017.48 1017.51 1017.54 1017.55
1017.43 1017.51 1017.62 1017.76 1017.91 1018.05 1018.19 1018.28 1018.34 1018.36 1018.32 1018.23 1018.09 1017.92 1017.72 1017.50 1017.27 1017.05 1016.85 1016.67 1016.54 1016.45 1016.41 1016.41 1016.43 1016.48 1016.53 1016.59 1016.63 1016.67 1016.70 1016.73 1016.77 1016.81 1016.85 1016.89 1016.92 1016.95
1017.30 1017.42 1017.55 1017.69 1017.85 1018.01 1018.15 1018.26 1018.34 1018.37 1018.36 1018.29 1018.17 1018.00 1017.79 1017.54 1017.27 1017.00 1016.72 1016.48 1016.27 1016.10 1015.97 1015.90 1015.85 1015.84 1015.85 1015.86 1015.88 1015.90 1015.93 1015.96 1016.00 1016.05 1016.11 1016.16 1016.21 1016.25
1017.12 1017.26 1017.40 1017.56 1017.71 1017.87 1018.01 1018.13 1018.21 1018.26 1018.27 1018.22 1018.12 1017.96 1017.76 1017.51 1017.22 1016.92 1016.61 1016.31 1016.04 1015.80 1015.60 1015.45 1015.33 1015.24 1015.18 1015.13 1015.10 1015.08 1015.08 1015.10 1015.13 1015.19 1015.25 1015.33 1015.40 1015.46
1016.88 1017.02 1017.17 1017.32 1017.46 1017.60 1017.73 1017.84 1017.93 1017.98 1018.00 1017.97 1017.90 1017.76 1017.58 1017.35 1017.07 1016.77 1016.45 1016.13 1015.82 1015.53 1015.27 1015.04 1014.84 1014.67 1014.53 1014.41 1014.31 1014.24 1014.19 1014.18 1014.19 1014.24 1014.31 1014.40 1014.50 1014.58
1016.55 1016.70 1016.84 1016.97 1017.10 1017.21 1017.32 1017.41 1017.49 1017.54 1017.56 1017.55 1017.50 1017.39 1017.24 1017.04 1016.80 1016.51 1016.21 1015.88 1015.56 1015.24 1014.94 1014.65 1014.39 1014.14 1013.92 1013.72 1013.54 1013.40 1013.30 1013.24 1013.23 1013.25 1013.32 1013.41 1013.52 1013.62
1016.15 1016.30 1016.42 1016.53 1016.64 1016.73 1016.81 1016.88 1016.93 1016.97 1017.00 1016.99 1016.96 1016.88 1016.76 1016.60 1016.39 1016.14 1015.86 1015.56 1015.24 1014.91 1014.58 1014.26 1013.94 1013.64 1013.35 1013.07 1012.83 1012.62 1012.45 1012.34 1012.28 1012.27 1012.31 1012.38 1012.48 1012.58
1015.69 1015.83 1015.95 1016.05 1016.13 1016.19 1016.25 1016.29 1016.33 1016.36 1016.37 1016.37 1016.34 1016.29 1016.19 1016.06 1015.88 1015.66 1015.41 1015.13 1014.83 1014.51 1014.18 1013.84 1013.50 1013.16 1012.82 1012.49 1012.19 1011.92 1011.69 1011.52 1011.40 1011.34 1011.33 1011.37 1011.43 1011.50
1015.19 1015.33 1015.45 1015.55 1015.62 1015.67 1015.71 1015.73 1015.75 1015.76 1015.76 1015.76 1015.73 1015.67 1015.59 1015.47 1015.31 1015.11 1014.89 1014.63 1014.35 1014.04 1013.72 1013.39 1013.04 1012.69 1012.33 1011.98 1011.64 1011.32 1011.04 1010.81 1010.63 1010.51 1010.43 1010.40 1010.40 1010.42
1014.66 1014.83 1014.96 1015.07 1015.14 1015.18 1015.21 1015.23 1015.23 1015.23 1015.22 1015.19 1015.15 1015.09 1014.99 1014.87 1014.71 1014.52 1014.30 1014.06 1013.79 1013.51 1013.20 1012.89 1012.56 1012.22 1011.87 1011.52 1011.17 1010.83 1010.51 1010.23 1009.99 1009.80 1009.64 1009.53 1009.44 1009.38
1014.13 1014.32 1014.48 1014.60 1014.68 1014.74 1014.77 1014.78 1014.78 1014.76 1014.73 1014.69 1014.63 1014.54 1014.42 1014.28 1014.10 1013.90 1013.67 1013.42 1013.16 1012.89 1012.62 1012.33 1012.04 1011.74 1011.42 1011.09 1010.76 1010.42 1010.09 1009.77 1009.48 1009.21 1008.97 1008.76 1008.58 1008.42
1013.58 1013.80 1013.99 1014.13 1014.23 1014.30 1014.33 1014.35 1014.34 1014.32 1014.28 1014.21 1014.13 1014.01 1013.86 1013.68 1013.48 1013.24 1012.99 1012.73 1012.47 1012.21 1011.96 1011.71 1011.46 1011.21 1010.94 1010.66 1010.36 1010.05 1009.72 1009.39 1009.05 1008.72 1008.41 1008.11 1007.83 1007.56
1012.99 1013.24 1013.45 1013.62 1013.74 1013.82 1013.86 1013.88 1013.87 1013.84 1013.79 1013.71 1013.60 1013.46 1013.28 1013.07 1012.82 1012.56 1012.28 1012.00 1011.72 1011.47 1011.24 1011.02 1010.81 1010.62 1010.41 1010.19 1009.95 1009.68 1009.37 1009.04 1008.68 1008.31 1007.93 1007.55 1007.18 1006.83
1012.35 1012.63 1012.85 1013.03 1013.16 1013.25 1013.31 1013.33 1013.32 1013.29 1013.24 1013.15 1013.02 1012.86 1012.66 1012.42 1012.14 1011.85 1011.54 1011.24 1010.95 1010.69 1010.47 1010.28 1010.12 1009.97 1009.82 1009.66 1009.48 1009.25 1008.99 1008.67 1008.31 1007.92 1007.50 1007.07 1006.63 1006.21
1011.67 1011.95 1012.19 1012.38 1012.51 1012.61 1012.66 1012.69 1012.69 1012.66 1012.60 1012.51 1012.39 1012.22 1012.01 1011.75 1011.46 1011.15 1010.82 1010.50 1010.20 1009.94 1009.72 1009.54 1009.40 1009.29 1009.19 1009.08 1008.94 1008.77 1008.54 1008.25 1007.91 1007.51 1007.08 1006.61 1006.14 1005.67
1010.98 1011.27 1011.50 1011.69 1011.83 1011.92 1011.98 1012.01 1012.01 1011.98 1011.94 1011.86 1011.74 1011.59 1011.38 1011.14 1010.85 1010.53 1010.20 1009.87 1009.56 1009.28 1009.05 1008.87 1008.74 1008.64 1008.56 1008.48 1008.37 1008.23 1008.03 1007.77 1007.45 1007.06 1006.62 1006.15 1005.66 1005.17
1010.35 1010.63 1010.87 1011.06 1011.20 1011.29 1011.35 1011.38 1011.39 1011.38 1011.34 1011.28 1011.19 1011.06 1010.88 1010.65 1010.38 1010.08 1009.75 1009.41 1009.09 1008.80 1008.55 1008.35 1008.20 1008.08 1007.99 1007.91 1007.81 1007.68 1007.49 1007.24 1006.93 1006.55 1006.12 1005.65 1005.16 1004.67
1009.84 1010.13 1010.38 1010.57 1010.72 1010.82 1010.88 1010.92 1010.94 1010.94 1010.93 1010.89 1010.83 1010.72 1010.57 1010.38 1010.13 1009.85 1009.53 1009.20 1008.87 1008.56 1008.28 1008.04 1007.84 1007.69 1007.56 1007.43 1007.30 1007.15 1006.95 1006.69 1006.37 1005.99 1005.56 1005.09 1004.59 1004.10
1009.54 1009.85 1010.11 1010.32 1010.48 1010.60 1010.68 1010.74 1010.77 1010.79 1010.79 1010.77 1010.73 1010.65 1010.53 1010.36 1010.15 1009.88 1009.58 1009.25 1008.90 1008.57 1008.25 1007.96 1007.70 1007.48 1007.28 1007.09 1006.89 1006.68 1006.43 1006.13 1005.79 1005.38 1004.94 1004.45 1003.94 1003.44
1009.49 1009.82 1010.11 1010.35 1010.54 1010.69 1010.79 1010.87 1010.92 1010.95 1010.96 1010.96 1010.92 1010.86 1010.76 1010.60 1010.40 1010.15 1009.85 1009.51 1009.15 1008.79 1008.42 1008.07 1007.74 1007.43 1007.15 1006.87 1006.58 1006.29 1005.96 1005.60 1005.20 1004.75 1004.26 1003.74 1003.21 1002.68
1009.69 1010.05 1010.38 1010.66 1010.89 1011.07 1011.21 1011.30 1011.37 1011.40 1011.41 1011.40 1011.36 1011.28 1011.17 1011.02 1010.81 1010.55 1010.24 1009.90 1009.52 1009.11 1008.70 1008.29 1007.89 1007.49 1007.11 1006.73 1006.35 1005.95 1005.53 1005.09 1004.61 1004.10 1003.55 1002.99 1002.41 1001.84
Thickness
5722 5721 5720 5722 5722 5722 5720 5717 5709 5701 5702 5707 5709 5710 5708 5706 5703 5701 5700 5698 5696 5694 5693 5692 5691 5689 5688 5688 5687 5686 5685 5685 5685 5685 5685 5685 5684 5684
5719 5719 5718 5719 5719 5720 5718 5717 5715 5708 5702 5706 5708 5709 5707 5705 5702 5700 5699 5697 5695 5694 5693 5692 5690 5689 5687 5686 5685 5684 5684 5683 5682 5682 5682 5681 5681 5681
5719 5717 5716 5716 5715 5716 5716 5715 5713 5710 5703 5704 5707 5707 5705 5703 5701 5699 5698 5697 5696 5695 5694 5692 5690 5688 5687 5685 5684 5683 5682 5681 5680 5679 5678 5677 5677 5676
5716 5715 5714 5714 5712 5712 5711 5711 5710 5709 5704 5700 5702 5702 5702 5702 5700 5699 5698 5699 5698 5696 5695 5693 5691 5689 5687 5685 5683 5682 5681 5679 5678 5676 5675 5674 5673 5672
5715 5713 5712 5711 5709 5709 5708 5707 5706 5707 5704 5700 5698 5700 5700 5700 5698 5697 5698 5697 5697 5697 5695 5693 5690 5688 5687 5685 5683 5681 5680 5678 5676 5674 5672 5671 5670 5669
5714 5712 5711 5709 5707 5706 5705 5704 5703 5701 5700 5697 5696 5697 5697 5698 5695 5692 5692 5693 5693 5695 5694 5692 5690 5688 5686 5684 5682 5680 5678 5676 5674 5672 5670 5669 5667 5666
5711 5710 5710 5708 5705 5703 5702 5700 5699 5697 5695 5693 5692 5693 5692 5690 5689 5689 5687 5688 5690 5691 5690 5690 5688 5686 5685 5683 5681 5679 5677 5674 5672 5670 5668 5666 5665 5664
5708 5708 5706 5705 5703 5701 5699 5697 5695 5692 5690 5687 5687 5686 5686 5686 5686 5684 5681 5680 5679 5685 5683 5683 5685 5684 5684 5683 5682 5680 5676 5673 5670 5667 5665 5664 5662 5661
5706 5705 5705 5706 5702 5700 5697 5694 5692 5690 5687 5684 5682 5682 5681 5682 5680 5678 5676 5674 5673 5677 5676 5675 5678 5678 5680 5681 5680 5677 5674 5671 5667 5665 5662 5660 5659 5657
5704 5703 5701 5701 5700 5698 5695 5692 5690 5689 5686 5683 5682 5681 5680 5679 5677 5674 5672 5672 5673 5674 5673 5668 5672 5672 5675 5674 5673 5671 5669 5666 5664 5661 5658 5656 5654 5653
5702 5701 5700 5698 5696 5694 5691 5688 5686 5686 5685 5684 5682 5679 5677 5674 5671 5668 5666 5663 5663 5666 5669 5665 5666 5666 5667 5667 5667 5665 5663 5660 5658 5655 5653 5651 5649 5647
5699 5699 5698 5696 5693 5690 5686 5683 5680 5680 5680 5679 5676 5675 5673 5671 5668 5664 5661 5657 5657 5658 5662 5659 5658 5656 5654 5658 5658 5657 5654 5653 5651 5649 5647 5645 5643 5638
5697 5696 5696 5693 5689 5685 5682 5679 5677 5675 5674 5673 5671 5671 5670 5668 5667 5664 5660 5656 5652 5651 5655 5652 5648 5646 5642 5644 5647 5647 5645 5644 5644 5642 5641 5639 5637 5632
5692 5693 5692 5688 5684 5680 5676 5674 5671 5668 5667 5666 5665 5664 5664 5664 5664 5662 5659 5656 5653 5650 5649 5645 5640 5637 5633 5632 5634 5637 5637 5636 5635 5634 5634 5633 5631 5628
5687 5685 5683 5680 5677 5673 5670 5667 5664 5661 5659 5658 5658 5659 5660 5660 5659 5656 5654 5651 5648 5646 5643 5640 5635 5632 5627 5624 5624 5625 5625 5627 5626 5625 5625 5624 5623 5621
5678 5677 5675 5673 5670 5668 5666 5661 5658 5656 5655 5653 5653 5653 5653 5652 5650 5648 5645 5643 5639 5638 5637 5634 5631 5626 5621 5619 5617 5615 5615 5615 5616 5616 5615 5615 5614 5614
5675 5672 5671 5668 5664 5663 5662 5659 5657 5653 5649 5647 5645 5644 5643 5642 5640 5639 5636 5634 5629 5627 5626 5626 5624 5620 5617 5613 5610 5609 5608 5607 5607 5606 5604 5603 5604 5604
5668 5667 5665 5663 5661 5659 5657 5654 5651 5648 5645 5642 5639 5637 5634 5632 5630 5629 5626 5622 5618 5617 5615 5614 5612 5609 5607 5607 5603 5600 5599 5596 5596 5595 5593 5591 5593 5594
5662 5661 5660 5658 5655 5653 5650 5647 5644 5642 5639 5636 5632 5629 5626 5623 5620 5617 5614 5610 5608 5606 5605 5603 5600 5595 5591 5592 5595 5591 5586 5585 5584 5583 5582 5581 5581 5584
5657 5655 5653 5651 5648 5644 5641 5639 5635 5632 5629 5626 5622 5619 5616 5612 5608 5605 5602 5599 5596 5594 5593 5591 5588 5584 5579 5578 5581 5582 5579 5575 5573 5572 5571 5572 5573 5575
5650 5648 5645 5642 5639 5636 5632 5629 5625 5622 5619 5615 5612 5608 5604 5600 5597 5594 5591 5587 5583 5581 5580 5579 5578 5575 5572 5570 5569 5571 5571 5568 5565 5561 5561 5560 5561 5562
5642 5639 5636 5633 5629 5625 5621 5618 5614 5610 5606 5603 5599 5595 5592 5588 5584 5581 5578 5575 5573 5571 5570 5569 5568 5565 5561 5557 5557 5558 5560 5560 5558 5555 5553 5551 5549 5551
5631 5628 5625 5621 5617 5614 5610 5605 5601 5597 5593 5589 5585 5582 5579 5575 5572 5570 5567 5565 5562 5560 5558 5557 5556 5553 5550 5548 5547 5547 5548 5548 5547 5546 5547 5546 5545 5545